sat.trackr.live / text

‹ back to catalog

STARLINK-1234

NORAD 45190 · 2020-012N

PAYLOAD ACTIVE UNKNOWN

§ Identity

Operator
Country
US
Launch date
2020-02-17
Launch site
AFETR
Launch vehicle
Mass (kg)
RCS (m²)

Purposes: comms

External: N2YO · Heavens-Above · Gunter

§ Orbital elements

Epoch: 2026-05-24T21:19:25.683744Z

Period
91.59 min
Inclination
53.0410°
Eccentricity
0.0006102
Mean motion
15.72229266 rev/d
Perigee alt
348.4 km
Apogee alt
356.6 km
Semi-major
6,730.7 km
B*
4.7319e-4
RAAN
309.6712°
Arg perigee
183.6141°
Mean anomaly
176.4833°
Rev number
34,783

§ Raw data

STARLINK-12341 45190U 20012N   26144.88849171  .00063659  00000+0  47319-3 0  99922 45190  53.0410 309.6712 0006102 183.6141 176.4833 15.72229266347834

JSON: /api/v1/satellites/45190 · /tle

For live sub-satellite position, see the globe view (requires WebGL).

§ Visibility from observer

Set your observer location to see the next 7 days of passes ≥ 10°. The values pass through the URL so the page stays shareable.

No JS? Fill the form by hand. The geolocation button needs JavaScript.